STARLINK-1615 (46166 NORAD) Tracking and Keplerian Element Data

This shows tracking and keplerian element data for the satellite.

Feedback or suggestion? Click here.




ElementValue
Catalog46166
NameSTARLINK-1615
Epoch Orbit179
Epoch Day330.91667824
Epoch Year2020
RAAN339.6462
Inclination53.0091
Eccentricity0.0001315
Argument of Perigee72.7247
Mean Anonmoly207.2784
Mean Motion15.05545308
Decay Rate0.00042628
L11 46166U 20057BB 20330.91667824 .00042628 00000-0 29299-2 0 9993
L22 46166 53.0091 339.6462 0001315 72.7247 207.2784 15.05545308 1798

Live tracking and technical data element details for STARLINK-1615 (NORAD 46166). STARLINK-1615 can be tracked NOW for your location showing map with azimuth and elevation plus other details from your city location.

Track the satellite on the map from your city or location and see movement details for azimuth, elevation, latitude, longitude, range, height, and movement on the map or in text.







IsCatalogInMostPopularTable: catalog: 46166, numindb: 14
Update: records affected: 1



GetName: 46166 STARLINK-1615

Hit Count: updated at: Thu, 26 Nov 2020 23:29:48 GMT